Regional Weather Roundup
Issued by NWS

Home | Current Version | Previous Version | Text Only | Print | Product List | Glossary On
Versions: 1 2 3 4 5 6 7 8 9 10 11 12 13 14 15 16 17 18 19 20 21 22 23 24 25 26 27 28 29 30 31 32 33 34 35 36 37 38 39 40 41 42 43 44 45 46 47 48 49 50
000
ASUS43 KTOP 011759
RWRKS

WEATHER ROUNDUP FOR KANSAS
NATIONAL WEATHER SERVICE GOODLAND KS
1200 PM CST SUN FEB 01 2015

NOTE:  "FAIR" INDICATES FEW OR NO CLOUDS BELOW 12,000 FEET WITH NO
SIGNIFICANT WEATHER AND/OR OBSTRUCTIONS TO VISIBILITY.

KSZ001>006-013>018-027>032-041>047-011900-
NORTHWEST KANSAS

CITY           SKY/WX    TMP DP  RH WIND       PRES   REMARKS
GOODLAND       FLURRIES  18  12  77 N24G33    30.22R WCI   0
6HR MIN TEMP:  16; 6HR MAX TEMP:  20; 6HR PCP: TRACE;

HAYS           CLOUDY    19   5  53 NW21G30   30.20R WCI   3
HILL CITY      PTSUNNY   17   9  70 NW31G40   30.23R WCI  -3
6HR MIN TEMP:  15; 6HR MAX TEMP:  19; 6HR PCP: TRACE;

RUSSELL        FLURRIES  19  13  77 NW30G40   30.17R WCI   0
6HR MIN TEMP:  17; 6HR MAX TEMP:  24; 6HR PCP: TRACE;

$$

KSZ061>065-074>080-084>089-011900-
SOUTHWEST KANSAS

CITY           SKY/WX    TMP DP  RH WIND       PRES   REMARKS
DODGE CITY     SUNNY     24  13  62 N28G35    30.17R WCI   7
6HR MIN TEMP:  21; 6HR MAX TEMP:  25;

ELKHART          N/A     30  16  56 NW10        N/A  WCI  21
GARDEN CITY    MOSUNNY   26  13  57 N32G41    30.19S WCI   9
6HR MIN TEMP:  20; 6HR MAX TEMP:  26;

LIBERAL        SUNNY     30  18  59 N32       30.22R WCI  15
$$

KSZ066>073-081>083-090>101-011900-
SOUTHEAST KANSAS

CITY           SKY/WX    TMP DP  RH WIND       PRES   REMARKS
CHANUTE        CLOUDY    30  24  78 NW24G36   29.93R WCI  16
6HR MIN TEMP:  30; 6HR MAX TEMP:  43; 6HR PCP:  0.03;

COFFEYVILLE    CLOUDY    33  25  72 NW23G37   29.95R WCI  21
6HR MIN TEMP:  33; 6HR MAX TEMP:  45; 6HR PCP: TRACE;

HUTCHINSON     FLURRIES  23  14  68 NW28G41   30.10R WCI   6
6HR MIN TEMP:  22; 6HR MAX TEMP:  31; 6HR PCP: TRACE;

MEDICINE LODGE   N/A     28  17  63 N24G40    30.12R WCI  14
NEWTON         CLOUDY    21  10  63 NW30G39   30.06R WCI   3
PARSONS        CLOUDY    32  26  78 NW25G35   29.95R WCI  19
6HR MIN TEMP:  32; 6HR MAX TEMP:  44;

WICHITA INTL   CLOUDY    25  15  66 NW30G40   30.07R WCI   8
6HR MIN TEMP:  24; 6HR MAX TEMP:  34; 6HR PCP: TRACE;

WICHITA JABRA  CLOUDY    23  22  96 NW26G41   30.06R WCI   6
6HR MIN TEMP:  22; 6HR MAX TEMP:  34; 6HR PCP: TRACE;

WICHITA MCCONL MIX PCPN  23  16  74 NW25G36   30.06R WCI   7
WINFIELD       CLOUDY    27  19  72 NW28G38   30.06R WCI  11
6HR MIN TEMP:  26; 6HR MAX TEMP:  37; 6HR PCP: TRACE;

$$

KSZ007>012-019>026-033>040-048>060-102>105-011900-
NORTHEAST KANSAS

CITY           SKY/WX    TMP DP  RH WIND       PRES   REMARKS
CONCORDIA      LGT SNOW  13   8  81 NW23G39   30.13R WCI  -6
6HR MIN TEMP:  13; 6HR MAX TEMP:  24; 6HR PCP:  0.03;

EMPORIA        CLOUDY    23  18  81 NW26G43   29.98R WCI   6
6HR MIN TEMP:  23; 6HR MAX TEMP:  40; 6HR PCP:  0.02;

LAWRENCE       CLOUDY    28  24  85 NW22G33   29.91R FOG     WCI  14
6HR MIN TEMP:  28; 6HR MAX TEMP:  33; 6HR PCP:  0.06;

MANHATTAN      LGT SNOW  18  12  77 N10G25    30.07R WCI   6
6HR MIN TEMP:  18; 6HR MAX TEMP:  34; 6HR PCP:  0.02;

OLATHE IND     LGT SNOW  30  27  88 NW25G33   29.85R FOG     WCI  16
6HR MIN TEMP:  30; 6HR MAX TEMP:  38; 6HR PCP:  0.05;

OLATHE EXE     LGT SNOW  31  28  89 NW23G33   29.82R FOG     WCI  18
6HR MIN TEMP:  31; 6HR MAX TEMP:  38; 6HR PCP:  0.05;

SALINA         LGT SNOW  19  13  77 NW33G41   30.12R WCI  -1
6HR MIN TEMP:  19; 6HR MAX TEMP:  31; 6HR PCP: TRACE;

TOPEKA BILLARD LGT SNOW  25  20  81 NW22G38   29.96R WCI  10
6HR MIN TEMP:  25; 6HR MAX TEMP:  34; 6HR PCP:  0.06;

TOPEKA FORBES  LGT SNOW  27  21  78 NW35G41   29.92R WCI  10
6HR MIN TEMP:  27; 6HR MAX TEMP:  38; 6HR PCP:  0.05;

$$


USA.gov is the U.S. government's official web portal to all federal, state and local government web resources and services.